User: anonymous   Login
Location: Albany
(35.0000°S, 118.0000°E)
Time: 15:18:02
(UTC-04:00)
Language:

CZ-4B R/B - Orbit

View from above orbital plane
View from above orbital plane
View from above satellite
View from above satellite

Ground track
Ground track

The orbit data is extracted from the following two-line orbital elements,

1 33410U 08053C   15143.86290832  .00001564  00000-0  12337-3 0  9994
2 33410 097.6285 116.0971 0124196 204.6426 154.8831 14.96341624357748
Epoch (UTC): 23 May 2015 20:42:35
Eccentricity: 0.0124196
inclination: 97.6285°
perigee height: 492 km
apogee height: 664 km
right ascension of ascending node: 116.0971°
argument of perigee: 204.6426°
revolutions per day: 14.96341624
mean anomaly at epoch: 154.8831°
orbit number at epoch: 35774

The dashed part of the orbit path shows where the satellite is in the earth's shadow,  

DLR